{"data":{"norad_id":65260,"intl_designator":"2025-180B","name":"2025-180B","alt_names":[],"object_type":"PAYLOAD","status":"ACTIVE","operator":null,"country":"TBD","launch_date":"2025-08-19","launch_site_code":"JSC","launch_vehicle":null,"mission":null,"orbit_class":"UNKNOWN","rcs_meters":null,"size_class":null,"mass_kg":null,"dimensions":null,"purposes":[],"wikipedia_slug":null,"has_3d_model":false,"image_url":null,"decayed_at":null,"tle_current":{"epoch":"2026-05-15T15:24:51.319296Z","epoch_age_seconds":883280,"freshness":"AGED","line1":"1 65260U 25180B   26135.64226064  .00002530  00000+0  13465-3 0  9993","line2":"2 65260  97.5222 263.1906 0015928  77.1969 283.1552 15.15157103 40738","mean_motion":15.15157103,"eccentricity":0.0015928,"inclination_deg":97.5222,"raan_deg":263.1906,"arg_perigee_deg":77.1969,"mean_anomaly_deg":283.1552,"bstar":0.00013465,"rev_number":4073,"period_min":95.039649495673,"perigee_km":509.51349834111,"apogee_km":531.48980162449,"semimajor_km":6898.6386499828,"source":"CELESTRAK","updated_at":"2026-05-25T13:38:05.262009Z"}}}